Погода в Александровом Гае

Россия / Саратовская область     50°08′37″N   48°35′08″E
темп.,
°C
ветер,
м/с
пор.,
м/с
влажн.,
%
обл.,
%
осадки,
мм/ч
давл.,
гПа
погр.,
м
7 мая, пт
пт701:00+12ююв4852100 0.0 1018131
04:00+10ююв485550 0.0 1018128
07:00+11ююв495796 0.0 1018220
10:00+17ю6742100 0.0 1018754
13:00+19ююз4435100 0.0 10181850
16:00+20ююз453299 0.0 10162297
19:00+18ю3343100 0.0 101653
22:00+16ю3440100 0.0 101658
8 мая, сб
сб801:00+14ю23445 0.0 101615
04:00+14ю4545100 0.0 101690
07:00+14ю355543 0.0 1016155
10:00+19ююз45425 0.0 1016740
13:00+22ююз56415 0.0 10152190
16:00+22юз663753 0.0 10152036
19:00+20юз354499 0.0 1015145
22:00+16зюз345248 0.0 101541
9 мая, вс
вс901:00+13ююз115590 0.0 101411
04:00+14юв334665 0.0 101424
07:00+15юв485594 0.0 1013181
10:00+20ю5748100 0.0 1013532
13:00+23ю7934100 0.0 10131781
16:00+24ю6830100 0.0 10112010
19:00+22вюв4645100 0.0 1011116
22:00+18юв51046100 0.0 1011196
10 мая, пн
пн1001:00+16вюв4947100 0.0 1011129
04:00+15в41150100 0.0 1011177
07:00+16в81849100 0.0 1011393
10:00+22вюв81443100 0.0 1012870
13:00+25вюв81437100 0.0 10132439
16:00+22ююв5946100 0.0 1014641
19:00+19ю3760100 0.0 1015178
22:00+15з1183100 0.2 101655
11 мая, вт
вт1101:00+14ююз4491100 0.4 1017301
04:00+11юз468881 0.6 1019349
07:00+11з458355 0.3 1022431
10:00+15сз32625 0.3 1023685
13:00+20св345764 0.0 10221287
16:00+21юв6855100 0.1 10221284
19:00+16юв81479100 0.8 1023779
22:00+15в3988100 2.9 1022335